This is the latest recevied weather packets stored in our database for station/object DB0ADS-6. If no packets are shown the sender has not sent any weather packets the latest 10 day(s).
| Time | Temp. | Humidity | Pressure | Rain* | Wind** | Luminosity | Snow |
|---|---|---|---|---|---|---|---|
| 1777764949 | 16.11° C | 45% | 1014.6 hPa | 0 mm | - | - | - |
| 1777764626 | 16.11° C | 45% | 1014.6 hPa | 0 mm | - | - | - |
| 1777764325 | 16.11° C | 45% | 1014.6 hPa | 0 mm | - | - | - |
| 1777764023 | 16.11° C | 45% | 1014.6 hPa | 0 mm | - | - | - |
| 1777763741 | 16.11° C | 44% | 1014.7 hPa | 0 mm | - | - | - |
| 1777763440 | 16.11° C | 44% | 1014.7 hPa | 0 mm | - | - | - |
| 1777763138 | 16.11° C | 44% | 1014.8 hPa | 0 mm | - | - | - |
| 1777762816 | 15.56° C | 44% | 1014.7 hPa | 0 mm | - | - | - |
| 1777762579 | 15.56° C | 46% | 1014.8 hPa | 0 mm | - | - | - |
| 1777762273 | 16.11° C | 45% | 1014.9 hPa | 0 mm | - | - | - |
| 1777761971 | 16.11° C | 44% | 1014.8 hPa | 0 mm | - | - | - |
| 1777761670 | 16.11° C | 43% | 1014.9 hPa | 0 mm | - | - | - |
| 1777761367 | 16.67° C | 43% | 1014.9 hPa | 0 mm | - | - | - |
| 1777761066 | 16.67° C | 42% | 1014.9 hPa | 0 mm | - | - | - |
| 1777760804 | 15.56° C | 43% | 1015 hPa | 0 mm | - | - | - |
| 1777760462 | 15.56° C | 46% | 1015 hPa | 0 mm | - | - | - |
| 1777760160 | 16.11° C | 44% | 1015 hPa | 0 mm | - | - | - |
| 1777759859 | 16.67° C | 43% | 1015 hPa | 0 mm | - | - | - |
| 1777759557 | 17.22° C | 41% | 1015 hPa | 0 mm | - | - | - |
| 1777759255 | 17.22° C | 40% | 1015 hPa | 0 mm | - | - | - |
| 1777758954 | 17.22° C | 41% | 1015 hPa | 0 mm | - | - | - |
| 1777758652 | 16.67° C | 41% | 1015 hPa | 0 mm | - | - | - |
| 1777758370 | 16.67° C | 41% | 1015.1 hPa | 0 mm | - | - | - |
| 1777758069 | 17.22° C | 40% | 1015.1 hPa | 0 mm | - | - | - |
| 1777757748 | 17.78° C | 39% | 1015 hPa | 0 mm | - | - | - |
* Rain latest hour (hover to see other rain measurements)
** Current wind speed in m/s (hover to see current wind gust speed)